This demonstration page uses our WeatherBlox Daily Observations layout. Learn more.

Left ArrowRight Arrow

41.55636, -103.73856

Hourly Observations for May 27, 2020

Temp ( °F °C ) Dew Point ( °F °C ) Humidity (%) Winds ( mph kmh ) Pressure ( in mb ) Visibility ( mi km ) Precip ( " mm )
12:58 am 00:58 Clear 73 23 38 3.2 27 27 ENE 6 9 29.88 1012 10 16 N/A
1:58 am 01:58 Clear 68 20 39 3.9 35 35 SE 7 11 29.88 1012 10 16 N/A
2:58 am 02:58 Clear 64 17.7 38 3.1 38 38 SE 13 20 29.88 1012 10 16 N/A
3:58 am 03:58 Clear 61 15.9 40 4.2 46 46 SE 14 22 29.92 1013 10 16 N/A
4:58 am 04:58 Clear 59 14.9 40 4.7 51 51 SSE 15 24 29.92 1013 10 16 N/A
5:58 am 05:58 Clear 59 15 40 4.5 50 50 SSE 16 26 29.93 1014 10 16 N/A
6:58 am 06:58 Clear 58 14.2 39 4 51 51 S 16 26 29.94 1014 10 16 N/A
7:58 am 07:58 Clear 57 13.7 39 3.8 51 51 S 20 31 29.92 1013 10 16 N/A
8:58 am 08:58 Mostly Clear 56 13.1 37 3 51 51 S 20 31 29.93 1014 10 16 N/A
9:58 am 09:58 Clear 56 13.4 37 2.6 48 48 SSW 6 9 29.92 1013 10 16 N/A
10:58 am 10:58 Mostly Clear 52 11 39 3.9 62 62 SSW 8 13 29.93 1014 10 16 N/A
11:58 am 11:58 Sunny 53 11.9 39 3.9 58 58 N N/A 29.94 1014 10 16 N/A
12:58 pm 12:58 Mostly Cloudy 58 14.2 42 5.4 56 56 WSW 6 9 29.95 1014 10 16 N/A
1:58 pm 13:58 Partly Cloudy 59 14.8 43 6.2 57 57 SW 7 11 29.96 1015 10 16 N/A
2:58 pm 14:58 Sunny 68 20.1 44 6.6 42 42 W 6 9 29.94 1014 10 16 N/A
3:58 pm 15:58 Sunny 72 22.3 47 8.2 41 41 ENE 7 11 29.93 1014 10 16 N/A
4:58 pm 16:58 Sunny 74 23.1 45 7 36 36 ENE 8 13 29.94 1014 10 16 N/A
5:58 pm 17:58 Sunny 76 24.3 47 8.2 36 36 N N/A 29.92 1013 10 16 N/A
6:58 pm 18:58 Partly Cloudy 77 25 42 5.3 28 28 NW 6 9 29.91 1013 10 16 N/A
7:58 pm 19:58 Partly Cloudy 79 26.3 42 5.7 27 27 W 3 6 29.90 1013 10 16 N/A
8:58 pm 20:58 Sunny 80 26.9 46 7.5 29 29 S 3 6 29.88 1012 10 16 N/A
9:58 pm 21:58 Mostly Cloudy 80 26.5 44 6.7 28 28 ESE 10 17 29.88 1012 10 16 N/A
10:58 pm 22:58 Mostly Sunny 77 25.1 45 7.1 32 32 S 9 15 29.91 1013 10 16 N/A
11:58 pm 23:58 Mostly Cloudy 73 22.7 49 9.2 42 42 S 14 22 29.92 1013 10 16 N/A

Powered by AerisWeather